Zurück zum Katalog

NOAA 16 DEB

AktivSSO
NORAD 41299·DEBRIS·🇺🇸 United States

Gestartet Sep 21, 2000 von Vandenberg Space Force Base

Loading…

Nächste Überflüge (nächste 24 Stunden)

TLE

AktuellSource: Space-Track

Epoche: Sep 14, 2026, 08:34 UTC

1 41299U 00055HB  26257.35727296  .00001732  00000-0  79606-3 0  9992
2 41299  98.6805 306.2071 0045715 198.6700 161.2803 14.21927245551970

Verfolge NOAA 16 DEB in Echtzeit mit AllMySat

Download on the App Store